Regional Weather Roundup
Issued by NWS Sioux Falls, SD

Home | Current Version | Previous Version | Text Only | Print | Product List | Glossary On
Versions: 1 2 3 4 5 6 7 8 9 10 11 12 13 14 15 16 17 18 19 20 21 22 23 24 25 26 27 28 29 30 31 32 33 34 35 36 37 38 39 40 41 42 43 44 45 46 47 48 49 50
000
ASUS43 KFSD 221902
RWRFSD

WEATHER ROUNDUP FOR SE SOUTH DAKOTA/SW MINNESOTA/NW IOWA
NATIONAL WEATHER SERVICE SIOUX FALLS SD
200 PM CDT THU JUN 22 2017

NOTE: "FAIR" INDICATES FEW OR NO CLOUDS BELOW 12,000 FEET WITH NO
SIGNIFICANT WEATHER AND OR OBSTRUCTIONS TO VISIBILITY.


SDZ038>040-050-052>070-222000-
SOUTHEAST SOUTH DAKOTA

CITY           SKY/WX    TMP DP  RH WIND       PRES   REMARKS
BROOKINGS      CLOUDY    66  58  75 NE10      29.80S
CHAMBERLAIN    CLOUDY    72  53  50 N9G17     29.84S
HURON          MOSUNNY   71  57  61 NE9       29.81S
MADISON        CLOUDY    66  66 100 N13       29.80S
MITCHELL       CLOUDY    70  61  73 N17       29.79F
SIOUX FALLS    CLOUDY    75  65  70 NE10      29.74F
WINNER         CLOUDY    69  53  56 NE10      29.86R
YANKTON        MOSUNNY   82  61  48 NE13G24   29.72R
$$

MNZ071-072-080-081-089-090-097-098-222000-
SOUTHWEST MINNESOTA

CITY           SKY/WX    TMP DP  RH WIND       PRES   REMARKS
FAIRMONT       CLOUDY    75  66  73 E9        29.72R
JACKSON        CLOUDY    73  63  68 CALM      29.75R
LUVERNE        CLOUDY    73  59  60 NE10      29.75S
MARSHALL       LGT RAIN  64  61  90 N12       29.79R
MONTEVIDEO     RAIN      63  63 100 NW3       29.79R
PIPESTONE      CLOUDY    70  61  73 NE9       29.78S
REDWOOD FALLS  CLOUDY    66  63  90 NW7       29.77R
TRACY          CLOUDY    67  63  89 N12G17    29.78R
WINDOM         MOSUNNY   73  64  73 N8        29.75R
WORTHINGTON    CLOUDY    75  65  70 NE9       29.75R
$$

IAZ001>003-012>014-020>022-031-032-NEZ013-014-SDZ071-222000-
NORTHWEST IOWA

CITY           SKY/WX    TMP DP  RH WIND       PRES   REMARKS
CHEROKEE       CLOUDY    79  65  63 NE8G16    29.69S
DENISON        CLOUDY    86  66  51 SW6G15    29.66F
ESTHERVILLE    CLOUDY    76  64  66 SE20      29.70R
LE MARS        CLOUDY    82  63  51 NE20      29.69S
ORANGE CITY    CLOUDY    77  63  61 E7        29.72R
SHELDON        CLOUDY    77  63  61 E9G16     29.70S
SIOUX CITY     LGT RAIN  85  68  56 NE12G21   29.65S
SPENCER        CLOUDY    79  60  52 E23       29.70S
STORM LAKE     CLOUDY    79  66  65 N9        29.69S
$$

ABBREVIATIONS USED IN REMARKS
   TC - TEMPERATURE IN CELSIUS
  WCI - WIND CHILL INDEX
   HX - HEAT INDEX
  VSB - VISIBILITY




USA.gov is the U.S. government's official web portal to all federal, state and local government web resources and services.